CDT,Max TemperatureF,Mean TemperatureF,Min TemperatureF,Max Dew PointF,MeanDew PointF,Min DewpointF,Max Humidity, Mean Humidity, Min Humidity, Max Sea Level PressureIn, Mean Sea Level PressureIn, Min Sea Level PressureIn, Max VisibilityMiles, Mean VisibilityMiles, Min VisibilityMiles, Max Wind SpeedMPH, Mean Wind SpeedMPH, Max Gust SpeedMPH,PrecipitationIn, CloudCover, Events, WindDirDegrees
2012-9-1,90,83,75,77,75,74,100,82,64,30.11,30.06,30.02,10,9,7,21,6,26,T,3,Rain,173
2012-9-2,93,84,75,77,75,73,100,76,52,30.07,30.01,29.93,10,8,2,12,6,15,T,4,,206
2012-9-3,94,86,78,77,75,71,97,73,49,30.01,29.96,29.89,10,9,6,12,6,18,0.00,2,,225
2012-9-4,95,86,77,76,74,69,94,69,43,29.96,29.92,29.86,10,9,6,12,5,15,0.00,2,,243
2012-9-5,96,86,75,75,74,72,94,72,49,29.92,29.87,29.82,10,9,7,12,3,17,0.00,2,,239
2012-9-6,98,87,75,76,74,68,94,66,38,29.94,29.89,29.83,10,10,7,8,2,12,0.00,0,,126
2012-9-7,97,87,76,77,74,72,100,73,46,29.91,29.86,29.78,10,9,5,8,3,12,0.00,0,,127
2012-9-8,83,73,62,74,69,60,94,84,73,30.02,29.91,29.81,10,9,3,18,5,24,0.13,5,Rain,1
2012-9-9,86,72,57,61,58,54,100,69,37,30.10,30.04,29.99,10,9,2,12,3,16,0.00,0,,19
2012-9-10,88,72,56,63,58,54,100,66,31,30.14,30.07,30.04,10,8,1,13,3,18,0.00,0,,80
2012-9-11,88,74,59,64,60,55,97,66,34,30.15,30.08,30.05,10,7,0,14,3,17,0.00,0,Fog,107
2012-9-12,91,79,66,71,68,63,93,73,52,30.13,30.07,30.02,10,10,7,18,7,21,0.01,2,,116
2012-9-13,92,80,68,72,69,66,97,72,47,30.16,30.11,30.03,10,9,4,16,5,21,0.00,2,,121
2012-9-14,92,80,67,71,68,64,100,72,44,30.16,30.12,30.07,10,7,1,12,3,15,0.00,1,,67
2012-9-15,92,80,68,70,67,63,97,69,41,30.14,30.09,30.04,10,9,4,10,2,13,0.00,2,,84
2012-9-16,91,80,69,70,67,63,97,69,41,30.05,29.99,29.90,10,8,4,10,2,13,0.00,4,,29
2012-9-17,81,76,71,72,70,68,93,84,74,29.92,29.81,29.71,10,7,0,10,4,14,0.92,8,Fog-Rain-Thunderstorm,339
2012-9-18,85,76,67,70,67,62,100,76,51,30.05,29.88,29.79,10,9,2,14,7,18,0.35,5,Rain,326
2012-9-19,80,68,56,59,53,48,93,64,35,30.15,30.09,30.06,10,10,10,13,3,16,0.00,1,,42
2012-9-20,83,67,51,58,53,48,100,67,33,30.12,30.06,30.01,10,10,7,8,1,13,0.00,0,,54
2012-9-21,88,72,55,65,60,54,100,71,42,30.06,30.00,29.95,10,9,4,8,2,10,0.00,0,,144
2012-9-22,91,77,62,70,64,60,93,67,41,30.10,30.04,29.99,10,6,2,9,1,13,0.00,0,,50
2012-9-23,93,79,64,73,67,64,93,69,44,30.18,30.13,30.09,10,7,2,10,2,14,0.00,0,,318
2012-9-24,91,78,64,70,66,62,87,67,47,30.18,30.11,30.04,10,9,6,9,1,12,0.00,0,,116
2012-9-25,90,79,67,73,69,63,100,75,50,30.10,30.06,30.00,10,5,0,26,4,35,0.38,4,Fog-Rain-Thunderstorm,156
2012-9-26,88,78,68,70,66,60,97,69,40,30.11,30.05,30.01,10,8,2,12,4,15,0.00,0,,137
2012-9-27,89,77,65,70,66,63,100,72,43,30.14,30.08,30.01,10,7,2,12,2,17,0.00,1,,121
2012-9-28,90,79,67,72,69,65,100,76,52,30.07,30.01,29.95,10,8,3,13,4,16,0.00,2,,98
2012-9-29,79,74,68,73,71,66,97,88,79,29.98,29.90,29.81,10,7,2,12,4,15,0.54,8,Rain,107
2012-9-30,82,71,59,74,69,58,100,90,79,29.80,29.63,29.52,10,7,2,21,10,26,0.86,8,Rain-Thunderstorm,34